[[{"header":{"parameterUnit":"m.s-1","parameterCategory":1,"la1":30.2991,"la2":30.254,"lo1":-89.0895,"lo2":-89.0444,"dy":0.0017,"dx":0.0017,"nx":28,"ny":28,"refTime":"2024-05-10T09:00:00:Z","depth":0,"parameterNumber":2,"parameterNumberName":"U-component_of_WINDS"},"data":[0,0,0,0,0,0,0,0,0,0,0,0,0,0,0,0,0,0,0,0,0,0,0,0,0,0,0,0,0,0,0,0,0,0,0,0,0,0,0,0,0,0,0,0,0,0,0,0,0,0,0,0,0,0,0,0,0,0,1.1965,1.1968,0,1.2211,1.2214,1.2216,1.2251,1.2249,1.2246,1.2244,1.2506,1.2514,1.2523,0,0,0,0,0,0,0,0,0,0,0,0,0,1.1535,1.1543,1.1965,1.1968,1.1971,1.221,1.2214,1.2217,1.2251,1.2249,1.2246,1.2243,1.2503,1.2513,1.2524,0,0,0,0,0,0,0,0,0,0,0,0,0,1.1746,1.1546,1.1965,1.2017,1.2024,1.221,1.2214,1.2218,1.2252,1.2249,1.2245,1.2242,1.2499,1.2512,1.2526,1.2679,0,0,1.2568,1.2573,0,0,0,0,0,0,0,0,1.1734,1.1762,1.2006,1.2014,1.2022,1.2196,1.2158,1.2373,1.2253,1.2166,1.2244,1.224,1.2406,1.2427,1.2481,1.2692,1.2703,1.2569,1.2577,1.2583,1.2587,0,0,0,0,0,0,0,1.1719,1.1751,1.2063,1.201,1.2019,1.2031,1.2057,1.2199,1.2303,1.2173,1.2176,1.2204,1.241,1.2468,1.2488,1.2707,1.2568,1.2581,1.2589,1.2594,1.3056,1.306,0,0,0,0,0,0,1.1694,1.1739,1.2055,1.207,1.1866,1.2042,1.2071,1.2144,1.2301,1.2322,1.2207,1.2205,1.2446,1.2472,1.2497,1.2687,1.2583,1.2596,1.2603,1.3052,1.3057,1.3061,0,0,0,0,0,0,1.1684,1.1722,1.2045,1.1905,1.1947,1.2053,1.2135,1.2151,1.2209,1.2327,1.2346,1.2246,1.2445,1.2478,1.2633,1.2696,1.2602,1.2614,1.3047,1.3053,1.3059,1.3067,0,0,0,0,0,0,1.1672,1.1718,1.1775,1.1906,1.1955,1.2174,1.2139,1.2158,1.2231,1.2231,1.2369,1.2389,1.2445,1.2612,1.2647,1.2713,1.2625,1.3042,1.305,1.3057,1.3061,1.3072,1.3082,0,0,0,0,0,1.1656,1.177,1.1778,1.1816,1.2028,1.2177,1.2205,1.2264,1.2236,1.2296,1.2371,1.2384,1.2684,1.2628,1.2667,1.2738,1.3038,1.3047,1.3056,1.3057,1.307,1.3081,0,0,0,0,0,0,1.1647,1.1788,1.1798,1.1957,1.2054,1.2183,1.226,1.2277,1.2387,1.2383,1.2455,1.2486,1.2637,1.2704,1.2639,1.2896,1.2859,1.2876,1.2846,1.286,1.287,1.285,1.2636,0,0,0,0,0,1.1662,1.1769,1.1888,1.2017,1.2065,1.2154,1.2221,1.2258,1.2363,1.2406,1.2493,1.2598,1.2715,1.2792,1.2907,1.3072,1.3103,1.314,1.315,1.3158,1.3172,1.3265,1.3283,1.3091,1.3091,1.3091,0,0,1.1697,1.1787,1.1851,1.2017,1.2097,1.2208,1.2188,1.2307,1.2391,1.2425,1.2575,1.2644,1.2765,1.2926,1.3001,1.2986,1.3232,1.317,1.3175,1.3185,1.3276,1.3294,1.331,1.3097,1.3096,1.3095,0,0,1.1816,1.1895,1.201,1.209,1.221,1.2269,1.2296,1.2423,1.2468,1.2619,1.2647,1.275,1.2951,1.3036,1.3106,1.3258,1.3274,1.3294,1.3347,1.3436,1.3452,1.3465,1.3519,1.3538,1.3308,1.3308,1.3308,0,1.1845,1.201,1.2068,1.2186,1.2258,1.2291,1.2409,1.2486,1.2638,1.2689,1.267,1.2922,1.3007,1.3187,1.3224,1.328,1.3315,1.3278,1.3444,1.3459,1.3472,1.3525,1.3545,1.3309,1.3309,1.3309,1.3309,0,1.204,1.2155,1.2234,1.2376,1.2459,1.2576,1.2654,1.2731,1.2761,1.2823,1.2978,1.308,1.3216,1.3262,1.3294,1.3448,1.3434,1.3429,1.3393,1.3491,1.3541,1.3562,1.3311,1.3311,1.331,1.331,0,0,1.2159,1.2331,1.2359,1.2424,1.2559,1.2651,1.2771,1.2901,1.2965,1.3071,1.3174,1.3343,1.3338,1.3417,1.346,1.3538,1.3652,1.3523,1.3527,1.3543,1.3828,1.383,1.3852,1.3663,1.3667,1.3671,1.3817,0,1.2294,1.2504,1.256,1.274,1.2847,1.288,1.2985,1.3081,1.3142,1.3245,1.3314,1.3432,1.3417,1.3465,1.3544,1.362,1.371,1.3611,1.3762,1.3767,1.3729,1.3879,1.3882,1.4015,1.3837,1.3841,1.3843,0,1.2478,1.2583,1.2772,1.2893,1.294,1.3033,1.3156,1.3253,1.3364,1.3403,1.349,1.3525,1.3654,1.3612,1.3792,1.3724,1.379,1.3837,1.3844,1.386,1.381,1.3898,1.4059,1.4079,1.3875,1.3872,1.387,0,1.2545,1.2734,1.2872,1.2927,1.3071,1.3136,1.32,1.3306,1.338,1.349,1.3539,1.3663,1.3731,1.3828,1.3896,1.3859,1.4071,1.4034,1.4108,1.4107,1.4151,1.4147,1.4324,1.4194,1.4194,1.4194,1.4193,0,1.2689,1.2804,1.2903,1.2988,1.3118,1.3183,1.3311,1.3377,1.3471,1.3572,1.361,1.3704,1.3788,1.3895,1.395,1.4091,1.4122,1.4158,1.4172,1.4155,1.415,1.4198,1.419,1.4199,1.4198,1.4197,1.4196,0,1.2785,1.2856,1.3009,1.3132,1.3166,1.3256,1.3364,1.3449,1.3511,1.3637,1.3671,1.3769,1.3896,1.3974,1.4137,1.4173,1.4329,1.4339,1.429,1.4296,1.4365,1.4357,1.4579,1.4611,1.446,1.4461,1.4462,0,1.2871,1.296,1.3092,1.316,1.3223,1.3333,1.3408,1.3476,1.3553,1.3685,1.3755,1.3883,1.399,1.4192,1.428,1.4404,1.4418,1.4487,1.4437,1.4417,1.4418,1.4412,1.4421,1.4495,1.4496,1.4497,1.4498,0,1.3017,1.3048,1.3152,1.327,1.3357,1.3455,1.3551,1.3606,1.3691,1.3777,1.3904,1.3987,1.415,1.4278,1.441,1.448,1.4504,1.4513,1.4537,1.452,1.4487,1.4505,1.4312,1.4508,1.4507,1.4506,1.4505,1.4505,1.3111,1.3191,1.3295,1.3411,1.3491,1.358,1.3665,1.3737,1.3844,1.398,1.4015,1.4149,1.426,1.4438,1.4511,1.4619,1.4609,1.4644,1.4652,1.466,1.466,1.447,1.4644,1.4644,1.4644,1.4644,1.4643,0,1.3258,1.3326,1.3432,1.3564,1.3656,1.3667,1.3775,1.3852,1.3969,1.4068,1.417,1.4318,1.4443,1.454,1.4668,1.4736,1.4751,1.4768,1.4763,1.4779,1.4662,1.4629,1.4754,1.4754,1.4754,1.4754,1.4754,1.4754,1.3345,1.348,1.3523,1.3699,1.3769,1.3898,1.3958,1.4042,1.4121,1.4283,1.4384,1.4446,1.4545,1.4681,1.4796,1.4822,1.4868,1.4882,1.491,1.4799,1.4787,1.4776,1.4744,1.4892,1.4892,1.5018,1.5019,1.502]},{"header":{"parameterUnit":"m.s-1","parameterCategory":1,"la1":30.2991,"la2":30.254,"lo1":-89.0895,"lo2":-89.0444,"dy":0.0017,"dx":0.0017,"nx":28,"ny":28,"refTime":"2024-05-10T09:00:00:Z","depth":0,"parameterNumber":3,"parameterNumberName":"V-component_of_WINDS"},"data":[0,0,0,0,0,0,0,0,0,0,0,0,0,0,0,0,0,0,0,0,0,0,0,0,0,0,0,0,0,0,0,0,0,0,0,0,0,0,0,0,0,0,0,0,0,0,0,0,0,0,0,0,0,0,0,0,0,0,1.6211,1.6211,0,1.6253,1.6254,1.6254,1.6167,1.6164,1.6162,1.6159,1.6208,1.6212,1.6216,0,0,0,0,0,0,0,0,0,0,0,0,0,1.6061,1.6064,1.6211,1.6211,1.6212,1.6253,1.6254,1.6255,1.6168,1.6164,1.6161,1.6158,1.6207,1.6212,1.6216,0,0,0,0,0,0,0,0,0,0,0,0,0,1.6117,1.6065,1.6211,1.6173,1.617,1.6253,1.6254,1.6255,1.6169,1.6164,1.616,1.6156,1.6205,1.6211,1.6217,1.634,0,0,1.6235,1.6238,0,0,0,0,0,0,0,0,1.6114,1.6123,1.6178,1.6176,1.6173,1.62,1.6219,1.6283,1.617,1.6169,1.6159,1.6154,1.621,1.6215,1.6232,1.6342,1.6344,1.6236,1.6239,1.6242,1.6244,0,0,0,0,0,0,0,1.6111,1.6121,1.6228,1.6179,1.6176,1.6157,1.616,1.6231,1.6213,1.6169,1.6163,1.6169,1.6207,1.6227,1.6233,1.6345,1.6236,1.6241,1.6245,1.6247,1.6561,1.6565,0,0,0,0,0,0,1.611,1.6118,1.6226,1.6229,1.6132,1.6163,1.6167,1.6196,1.6212,1.621,1.6173,1.6165,1.6219,1.6226,1.6234,1.638,1.6242,1.6248,1.6251,1.6556,1.6562,1.6567,0,0,0,0,0,0,1.6108,1.6121,1.6225,1.6172,1.6184,1.617,1.6204,1.6199,1.6218,1.6215,1.6212,1.6195,1.6216,1.6226,1.6314,1.6381,1.625,1.6256,1.655,1.6558,1.6564,1.6672,0,0,0,0,0,0,1.6104,1.612,1.6165,1.6173,1.6187,1.6302,1.6208,1.6203,1.6228,1.6219,1.6235,1.6234,1.6213,1.6306,1.632,1.6386,1.626,1.6544,1.6553,1.6562,1.6663,1.6682,1.6699,0,0,0,0,0,1.6099,1.6194,1.6167,1.6181,1.6242,1.6306,1.6314,1.6286,1.6234,1.628,1.6278,1.6233,1.6372,1.6316,1.6331,1.64,1.654,1.6551,1.6561,1.6655,1.6678,1.6698,0,0,0,0,0,0,1.6194,1.6194,1.6165,1.6265,1.6286,1.6291,1.6347,1.6312,1.6349,1.6338,1.6305,1.6309,1.6405,1.6412,1.635,1.6521,1.6447,1.6462,1.6513,1.6536,1.6553,1.6549,1.6265,0,0,0,0,0,1.6227,1.6277,1.6275,1.6365,1.6376,1.6361,1.6388,1.6365,1.6386,1.6394,1.6399,1.6422,1.6471,1.6504,1.6548,1.6664,1.6668,1.672,1.6738,1.6753,1.6765,1.6829,1.6853,1.6602,1.6602,1.6602,0,0,1.6295,1.6302,1.6335,1.6384,1.6397,1.6452,1.6368,1.6429,1.6471,1.6404,1.6487,1.6492,1.6517,1.662,1.6665,1.6628,1.6836,1.6766,1.6778,1.6782,1.6843,1.6866,1.6887,1.6609,1.6608,1.6607,0,0,1.6447,1.6457,1.6533,1.6548,1.6569,1.6559,1.6578,1.6589,1.6589,1.6672,1.6624,1.6674,1.6758,1.6778,1.6799,1.6964,1.6925,1.698,1.7074,1.7137,1.7156,1.7174,1.7233,1.7255,1.6992,1.6993,1.6993,0,1.653,1.6608,1.6577,1.6642,1.6666,1.6608,1.6686,1.6704,1.6739,1.6758,1.6716,1.6822,1.6835,1.6943,1.6983,1.7002,1.7024,1.6976,1.7156,1.7173,1.7189,1.7245,1.7268,1.6999,1.6998,1.6998,1.6997,0,1.6709,1.6765,1.6825,1.6859,1.689,1.6962,1.6944,1.698,1.6956,1.6951,1.7038,1.7052,1.7099,1.7123,1.7101,1.723,1.7206,1.7161,1.7085,1.7219,1.7272,1.7294,1.7008,1.7006,1.7004,1.7003,0,0,1.692,1.6938,1.6961,1.6977,1.6998,1.7042,1.7113,1.7158,1.719,1.7218,1.7278,1.7352,1.7311,1.7335,1.7315,1.7371,1.7502,1.7318,1.7319,1.7353,1.7647,1.7681,1.7706,1.7477,1.7481,1.7484,1.7645,0,1.7071,1.719,1.7165,1.7283,1.7336,1.7284,1.7346,1.7367,1.7366,1.7412,1.7412,1.7465,1.7406,1.7421,1.7473,1.7475,1.7561,1.7463,1.7534,1.7537,1.7529,1.7733,1.7769,1.792,1.7665,1.7669,1.7671,0,1.7262,1.7296,1.7419,1.7434,1.7455,1.7511,1.7552,1.7597,1.7621,1.7617,1.7646,1.7616,1.769,1.7615,1.7717,1.7651,1.768,1.7686,1.7691,1.7696,1.7612,1.7744,1.7967,1.799,1.7703,1.7701,1.7699,0,1.7404,1.7481,1.7565,1.7581,1.76,1.7641,1.7652,1.7672,1.7702,1.7739,1.7758,1.7804,1.783,1.7867,1.7852,1.7799,1.7959,1.7882,1.7959,1.7959,1.7993,1.7991,1.8224,1.8013,1.8012,1.8012,1.8011,0,1.7574,1.7652,1.7629,1.7681,1.7768,1.7741,1.7828,1.7833,1.7852,1.7906,1.7865,1.7917,1.7894,1.7945,1.7935,1.8022,1.8034,1.8034,1.803,1.8037,1.8038,1.8055,1.8044,1.8018,1.8016,1.8015,1.8014,0,1.7746,1.7734,1.7823,1.7835,1.784,1.7903,1.7915,1.7965,1.7961,1.803,1.8045,1.804,1.8099,1.8088,1.8153,1.8146,1.8256,1.8239,1.8247,1.8243,1.8321,1.8314,1.8573,1.8606,1.8373,1.8375,1.8377,0,1.7856,1.7914,1.7933,1.7965,1.7979,1.8032,1.8062,1.804,1.8073,1.8108,1.8155,1.821,1.8252,1.8349,1.8353,1.8404,1.8388,1.8475,1.8395,1.8402,1.8391,1.8387,1.8394,1.8491,1.8494,1.8496,1.8498,0,1.8051,1.8043,1.8087,1.8131,1.8168,1.8202,1.8232,1.8262,1.8242,1.8283,1.8342,1.8375,1.8442,1.8498,1.8546,1.856,1.8527,1.8523,1.8544,1.8551,1.8554,1.8555,1.829,1.8517,1.8515,1.8513,1.8512,1.8512,1.8196,1.8246,1.8268,1.832,1.834,1.837,1.8418,1.8421,1.8469,1.852,1.8505,1.8573,1.8601,1.8661,1.868,1.8735,1.8703,1.8733,1.874,1.8748,1.8758,1.8546,1.8744,1.8743,1.8743,1.8742,1.8742,0,1.839,1.8402,1.845,1.8493,1.8535,1.8499,1.8532,1.857,1.8629,1.8657,1.87,1.877,1.8825,1.8834,1.8887,1.893,1.8916,1.8944,1.8941,1.8945,1.8783,1.876,1.8955,1.8954,1.8954,1.8954,1.8954,1.8954,1.8495,1.8579,1.8575,1.867,1.8682,1.8747,1.8769,1.8797,1.8819,1.8898,1.8944,1.8949,1.897,1.9025,1.9076,1.9077,1.9099,1.9134,1.913,1.8978,1.8956,1.8936,1.8914,1.9138,1.9139,1.9288,1.9289,1.929]}]]